Starlink 31294

operational
NORAD ID: 58949 Int'l Des: 2024-027 Owner: SPXS Country: US Constellation: starlink
LEOCIRCULAR

关于 Starlink 31294

正在加载描述...

实时位置

正在加载3D地球...

即将过境

高度历史

Altitude vs Time

uPlot chart will show altitude changes over time

两行轨道根数

1 58949U 24027U 25260.60472541 .00001065 00000-0 48071-4 0 9990
2 58949 53.1604 33.9060 0001057 76.2982 283.8137 15.30196208 90820
Epoch: Sep 17, 2025 • Age: 25 hours

当前状态

高度 481.1 km
速度 7.63 km/s
星下点 53.31°N, 118.44°W
发射日期 Feb 10, 2024
运行时间 1.6 years
类型 internet

技术详情

分类 Payload
质量 730.00 kg
干质量 700.00 kg
总质量 730.00 kg
长度 0.30 m
直径 4.10 m
跨度 29.00 m
形状 Box + pan
制造商 SPXS
平台类型 Starlink V2M
阶段状态 In Orbit
所有者/国家 SPXS/US

大型星座

Loading constellations...